Location: Pedholt
(56.0260°N, 10.2097°E)
Time: 21:18:18
(UTC+00:00)

Tiros 1 - Pass Details

Date: 01 August 2021
Orbit: 630 x 663 km, 48.4° (Epoch: 19 September)

Event Time Altitude Azimuth Distance (km) Brightness Sun altitude
Rises 18:04:59 0° 223° (SW) 2,978 10.9 9.4°
Reaches altitude 10° 18:07:42 10° 209° (SSW) 2,064 9.9 9.0°
Maximum altitude 18:11:25 23° 158° (SSE) 1,386 8.6 8.5°
Drops below altitude 10° 18:15:07 10° 106° (ESE) 2,053 9.1 8.0°
Sets 18:17:50 0° 92° (E) 2,958 9.9 7.7°
